Погода в Эсто-Алтае

Россия / Республика Калмыкия     46°12′06″N   42°13′36″E
темп.,
°C
ветер,
м/с
пор.,
м/с
влажн.,
%
обл.,
%
осадки,
мм/ч
давл.,
гПа
погр.,
м
18 апреля, вс
вс1800:00+8зюз359285 0.0 102291
03:00+9с118799 0.0 102125
06:00+9св2286100 0.0 102056
09:00+9в2592100 0.8 1019238
12:00+9всв3492100 1.6 1019272
15:00+10вюв4695100 7.8 1017301
18:00+10вюв3597100 2.5 1017163
21:00+10в1196100 3.1 101813
19 апреля, пн
пн1900:00+11вюв2296100 0.2 101729
03:00+11ссв2296100 0.5 101632
06:00+11ссв1198100 0.6 101616
09:00+11зсз1298100 4.1 1016102
12:00+12ю1294100 2.1 1016201
15:00+12з1198100 4.7 101568
18:00+12ю1198100 4.3 101536
21:00+11ююз2197100 5.6 101621
20 апреля, вт
вт2000:00+12вюв3699100 0.1 1013178
03:00+12в5999100 2.0 1011240
06:00+13в4993100 0.1 1009359
09:00+15вюв101876100 0.1 1006678
12:00+18вюв101568100 0.1 1004704
15:00+21юв71068100 1.1 1004984
18:00+19зюз4880100 0.6 1006264
21:00+16зюз61283100 0.8 1009474
21 апреля, ср
ср2100:00+13юз51178100 0.3 1011399
03:00+11зюз7157712 0.4 1013919
06:00+9зюз815803 0.0 1015865
09:00+13з8126743 0.0 10171368
12:00+15з686298 0.1 10181492
15:00+14з4563100 0.1 10191066
18:00+14ююз347196 0.1 1020175
21:00+12ююз357892 0.2 102294
22 апреля, чт
чт2200:00+10зюз34845 0.0 102255
03:00+8зсз228915 0.0 102216
06:00+8ссз228724 0.0 102334
09:00+13с225710 0.0 1023465
12:00+17ссв224722 0.0 10231427
15:00+17в1145100 0.1 10221679
18:00+14ю3575100 0.3 1022226
21:00+11ююз348264 0.3 102263